Piloto Civil Norberto Fernandez current weather conditions

sailwx.info

Wind from 230 at 18 knots

Air temperature 6.0° C
Visibility: greater than 5.4 NM
Dewpoint -6.0° C

Last reported at 2014-Oct-31 19:00 UTC.
Time now 2014-Nov-01 13:27 UTC

Location: S 51°37' W 069°19'.
View on Google Maps.

See reports from other nearby stations

  
Tides and Currents Weather Stations Pressure Air Temp Water Temp Dewpoint Dewpoint Depression Visibility Wind Speed Wind Dir Waves Ship Positions
date/time (UTC)wind fromknots sea level pressurealtimeterstation pressurevisibilityair tempwater tempwave heightnotes
2014-Oct-31 19:00 230 18 5.4 6.0
2014-Oct-31 15:00 200 17 5.4 6.0
2014-Oct-31 14:00 230 17 5.4 4.0
2014-Oct-31 13:00 230 16 5.4 4.0
2014-Oct-31 12:00 230 11 5.4 1.0
2014-Oct-31 11:00 250 14 5.4 1.0
2014-Oct-31 10:00 250 10 5.4-1.0
2014-Oct-31 09:00 250 12 5.4-1.0
2014-Oct-31 08:00 270 9 5.4-2.0
2014-Oct-31 07:00 250 11 -1.0
2014-Oct-31 06:00 230 10 -0.0
2014-Oct-31 05:00 230 10 5.4-0.0
2014-Oct-31 04:00 230 11 5.4-0.0
2014-Oct-31 03:00 230 11 -0.0
2014-Oct-31 02:00 230 8 -0.0
2014-Oct-31 01:00 230 10 1.0
2014-Oct-31 00:00 250 7 5.4 2.0
2014-Oct-30 23:00 230 10 5.4 3.0
2014-Oct-30 22:00 200 14 5.4 3.0
2014-Oct-30 21:00 200 15 5.4 2.0
2014-Oct-30 20:20 200 12 1.1 1.0 Snow.
2014-Oct-30 20:00 180 14 1.6 1.0 Snow.
2014-Oct-30 19:15 180 17 1.6 3.0 Snow.
2014-Oct-30 19:00 160 15 2.7 3.0 Rain snow.
2014-Oct-30 18:00 140 8 4.3 3.0 Rain.
2014-Oct-30 17:00 180 15 4.9 2.0
2014-Oct-30 16:00 160 11 3.8 3.0 Rain showers.
2014-Oct-30 15:23 160 18 4.3 7.0 Small hail/snow pellets showers.
2014-Oct-30 15:00 180 14 4.9 7.0 Rain showers.
2014-Oct-30 14:00 180 13 5.4 2.0
2014-Oct-30 13:25 180 17 1.9 2.0 Snow.
2014-Oct-30 13:05 200 14 1.9 2.0 Rain snow.